"Pseudo-MPEC" for CCNG6P2

Created 2025 Jan 22 23:31:09 UT using Find_Orb

Click here for an explanation of pseudo-MPECs

 
 Astrometry: 
     CCNG6P2  C2024 11 12.56098908 30 55.974+12 37 20.59   ~171H 22.47GVNEOCPF52
     CCNG6P2  C2024 11 12.58765908 30 55.582+12 37 21.55   ~171H 22.30GVNEOCPF52
     CCNG6P2  C2024 11 12.60097608 30 55.352+12 37 23.01   ~171H 23.27GVNEOCPF52
     CCNG6P2  C2024 11 28.52089108 24 45.810+13 02 47.92   ~171H 23.57GVNEOCPF51
     CCNG6P2  C2024 12 02.51731008 22 27.221+13 12 20.87   ~171H 22.21GVNEOCPF52
     CCNG6P2  C2024 12 02.52884408 22 26.812+13 12 23.61   ~171H 21.45GVNEOCPF52
     CCNG6P2  C2024 12 02.54038808 22 26.385+13 12 24.89   ~171H 22.13GVNEOCPF52
     CCNG6P2  C2024 12 06.48407608 19 50.320+13 23 11.28   ~171H 23.09GVNEOCPF52
     CCNG6P2  C2024 12 06.49688008 19 49.733+13 23 13.49   ~171H 22.00GVNEOCPF52
     CCNG6P2  C2024 12 06.58966208 19 45.833+13 23 29.71   ~171Hx23.14GVNEOCPF51
     CCNG6P2  C2024 12 22.56299408 05 52.397+14 20 55.76   ~171H 23.05GVNEOCPF52
     CCNG6P2  C2024 12 22.57384008 05 51.715+14 20 58.55   ~171H 22.66GVNEOCPF52
     CCNG6P2  C2024 12 22.58476908 05 51.011+14 21 01.21   ~171H 22.96GVNEOCPF52
     CCNG6P2  C2024 12 22.59565208 05 50.323+14 21 04.09   ~171H 22.19GVNEOCPF52
     CCNG6P2  C2024 12 23.44399308 04 57.340+14 24 42.68   ~171H 22.16GVNEOCPF51
     CCNG6P2  C2024 12 23.46693008 04 55.890+14 24 48.72   ~171H 21.68GVNEOCPF51
     CCNG6P2  C2024 12 23.47844908 04 55.140+14 24 51.61   ~171H 22.23GVNEOCPF51
     CCNG6P2  C2024 12 30.56593807 56 58.057+14 57 25.90   ~171H 21.32GVNEOCPF51
     CCNG6P2  C2024 12 30.57561807 56 57.349+14 57 28.62   ~171H 21.89GVNEOCPF51
     CCNG6P2  C2024 12 30.58533607 56 56.650+14 57 31.28   ~171H 21.47GVNEOCPF51
     CCNG6P2*1C2025 01 03.34215907 52 21.680+15 16 09.80   ~1392 21.65GVNEOCPG96
     CCNG6P2 1C2025 01 03.34727207 52 21.284+15 16 11.17   ~1392 21.76GVNEOCPG96
     CCNG6P2 1C2025 01 03.35240507 52 20.939+15 16 13.30   ~1392 21.12GVNEOCPG96
     CCNG6P2 1C2025 01 03.35754607 52 20.482+15 16 14.88   ~1392 21.65GVNEOCPG96
     CCNG6P2 KC2025 01 03.47944207 52 11.284+15 16 51.60   ~13CH 20.89GVNEOCPI52
     CCNG6P2 KC2025 01 03.48408407 52 10.938+15 16 53.22   ~13CH 21.11GVNEOCPI52
     CCNG6P2 KC2025 01 03.48873007 52 10.542+15 16 54.91   ~13CH 21.42GVNEOCPI52
     CCNG6P2 KC2025 01 03.49337707 52 10.196+15 16 55.88   ~13CH 21.62GVNEOCPI52
     CCNG6P2 KC2025 01 04.26758907 51 11.862+15 20 53.66   ~1472 22.22GVNEOCPI52
     CCNG6P2 KC2025 01 04.27140007 51 11.509+15 20 54.64   ~1472 20.89GVNEOCPI52
     CCNG6P2 KC2025 01 04.27521607 51 11.308+15 20 55.54   ~1472 21.41GVNEOCPI52
     CCNG6P2  C2025 01 05.35276707 49 48.893+15 26 29.86   ~171H 22.28GVNEOCPF51
     CCNG6P2  C2025 01 05.36398007 49 48.019+15 26 33.48   ~171H 21.44GVNEOCPF51
     CCNG6P2  C2025 01 05.37518907 49 47.144+15 26 37.12   ~171H 21.54GVNEOCPF51
     CCNG6P2  C2025 01 05.38641907 49 46.271+15 26 40.21   ~171H 22.58GVNEOCPF51
     CCNG6P2 1C2025 01 06.51948707 48 18.339+15 32 35.23   ~170V 21.45GVNEOCPT12
     CCNG6P2 1C2025 01 06.52132707 48 18.193+15 32 35.79   ~170V 21.31GVNEOCPT12
     CCNG6P2 1C2025 01 06.52534707 48 17.857+15 32 37.00   ~170V 21.41GVNEOCPT12
     CCNG6P2 #C2025 01 09.18335407 44 47.594+15 46 43.30   ~19A2 21.2 rVNEOCPJ13
     CCNG6P2 #C2025 01 09.18517707 44 47.470+15 46 44.07   ~19A2 20.8 rVNEOCPJ13
     CCNG6P2 KC2025 01 18.79280407 31 27.87 +16 39 46.0    ~1JAV 20.8 GUNEOCPL06
     CCNG6P2 KC2025 01 18.82581807 31 25.04 +16 39 56.9    ~1JAV 21.0 GUNEOCPL06
     CCNG6P2 KC2025 01 19.84550 07 29 57.463+16 45 41.83   ~1KAV 21.7 GVNEOCPB74
     CCNG6P2 KC2025 01 19.86774 07 29 55.543+16 45 49.14   ~1KAV 21.7 GVNEOCPB74
     CCNG6P2 KC2025 01 19.88541 07 29 53.988+16 45 55.19   ~1KAV 21.6 GVNEOCPB74
     CCNG6P2 3C2025 01 19.89849 07 29 52.87 +16 46 02.7    ~1JN2 20.7 GVNEOCPK93
     CCNG6P2 3C2025 01 19.90226 07 29 52.52 +16 46 04.4    ~1JN2 20.9 GVNEOCPK93
     CCNG6P2  C2025 01 20.30394407 29 18.009+16 48 18.09   ~1K9l 20.89wXNEOCPF52
     CCNG6P2  C2025 01 20.31555007 29 16.870+16 48 21.20   ~1K8l 21.5 RVNEOCP691
     CCNG6P2  C2025 01 20.32485407 29 16.050+16 48 24.80   ~1K8l 21.2 RVNEOCP691
     CCNG6P2  C2025 01 20.32688307 29 15.999+16 48 26.10   ~1K9l 21.75wXNEOCPF52
     CCNG6P2  C2025 01 20.33416007 29 15.250+16 48 27.60   ~1K8l 21.0 RVNEOCP691
     CCNG6P2  C2025 01 20.33834807 29 14.989+16 48 29.86   ~1K9l 21.52wXNEOCPF52

Station data:
(691) Steward Observatory, Kitt Peak - Spacewatch  (N31.962174 W111.600327)
   US/Arizona.  Observer J. V. Scotti. 0.9-m f/3 reflector + CCD.
(B74) Santa Maria de Montmagastrell  (N41.720158 E1.105360)  Spain.  Observer
   J. M. Bosch. 0.4-m f/1.2 Schmidt-Cassegrain + CCD.
(F51) Pan-STARRS 1, Haleakala  (N20.707234 W156.255910)  US/Hawaii.
   Observers J. Bulger, T. Lowe, A. Schultz, M. Willman. Measurers K.
   Chambers, S. Chastel, T. de Boer, L. Denneau, J. Fairlamb, H. Flewelling,
   M. Huber, C.-C. Lin, E. Magnier, Y. Ramanjooloo, R. Wainscoat, R. Weryk.
   1.8-m Ritchey-Chrétien + CCD.
(F52) Pan-STARRS 2, Haleakala  (N20.707382 W156.255910)  US/Hawaii.
   Observers J. Bulger, T. Dukes, T. Lowe, A. Schultz, M. Willman. Measurers
   K. Chambers, S. Chastel, T. de Boer, L. Denneau, J. Fairlamb, H.
   Flewelling, M. Huber, C.-C. Lin, E. Magnier, Y. Ramanjooloo, R. Wainscoat,
   R. Weryk. 1.8-m Ritchey-Chrétien + CCD.
(G96) Mt. Lemmon Survey  (N32.442729 W110.788720)  US/Arizona.  Observer E.
   J. Christensen.  + 10K CCD.
(I52) Steward Observatory, Mt. Lemmon Station  (N32.442570 W110.788920)
   US/Arizona.  Observers T. A. Pruyne, B. M. Africano, E. J. Christensen, G.
   A. Farneth, D. C. Fuls, A. R. Gibbs, A. D. Grauer, H. Gröller, J. A.
   Johnson, R. A. Kowalski, S. M. Larson, G. J. Leonard, D. Rankin, R. L.
   Seaman, F. C. Shelly, K. W. Wierzchoś. 1.0-m prime focus + CCD.
(J13) La Palma-Liverpool Telescope  (N28.762514 W17.879200)  Canary Islands
   (Spain).  Observer F. D. Romanov. Measurers C. Barache, S. Bouquillon, T.
   Carlucci, F. Taris. 2.0-m f/10 Ritchey-Chrétien + CCD.
(K93) Sutherland-LCOGT C  (S32.380667 E20.810110)  South Africa.  Observer R.
   Miles. 1.0-m f/8.0 Ritchey-Chrétien + CCD.
(L06) Sormano 2 Observatory, Bellagio Via Lattea  (N45.970100 E9.254030)
   Italy.  Observer G. Ventre. Measurers G. Ventre, P. Sicoli. 0.28-m f/10
   reflector + CCD.
(T12) Mauna Kea-UH/Tholen NEO Follow-Up (2.24-m)  (N19.822991 W155.469434)
   US/Hawaii.  Observer R. Weryk. 2.24-m f/10.1 University of Hawaii
   reflector.

Orbital elements:  CCNG6P2
   Perihelion 2025 Nov 8.43842 +/- 0.00954 TT = 10:31:19 (JD 2460987.93842)
Epoch 2025 Jan 20.0 TT = JDT 2460695.5   Earth MOID: 0.3091   Ju: 0.5698
M 359.80357767 +/- 0.0057           Ve: 0.0683                   AutoNEOCP
n   0.00067167 +/- 1.95e-5          Peri.  132.98370 +/- 0.015
a 129.131373 +/- 2.39               Node   108.09764 +/- 0.0013
e   0.9959017 +/- 7.69e-5           Incl.  143.63279 +/- 0.006
P1467.39709                H 15.49  G  0.15   U  5.5
q 0.52921077 +/- 0.000224    Q 257.733535 +/- 4.77        (J2000 ecliptic)
52 of 53 observations 2024 Nov. 12-2025 Jan. 20; mean residual 0".26
Residuals in arcseconds: 
241112 F52  .03+  .42+    241230 F51  .03+  .07-    250106 T12  .06+  .02+    
241112 F52  .28+  .27-    241230 F51  .05+  .21-    250106 T12  .21-  .02-    
241112 F52  .08-  .37+    250103 G96  .05+  .40-    250109 J13  .11-  .22+    
241128 F51  .20-  .39-    250103 G96  .06-  .59-    250109 J13  .23+  .41+    
241202 F52  .28-  .49-    250103 G96  .59+  .02-    250118 L06  .38-  .51+    
241202 F52  .13+  .47+    250103 G96  .37-  .01-    250118 L06  .17-  .16+    
241202 F52  .29+  .03-    250103 I52  .53+  .28-    250119 B74  .18-  .01-    
241206 F52  .21+  .09+    250103 I52  .62+  .06-    250119 B74  .07-  .28-    
241206 F52  .36-  .05+    250103 I52  .01-  .22+    250119 B74  .39-  .25-    
241206 F51( .87+  .04+)   250103 I52  .08+  .22-    250119 K93  .46+  .30-    
241222 F52  .01-  .00     250104 I52  .35+  .13+    250119 K93  .15+  .12+    
241222 F52  .01+  .03+    250104 I52  .53-  .07-    250120 F52  .21+  .01+    
241222 F52  .22-  .09-    250104 I52  .80+  .35-    250120 691  .12+  .46-    
241222 F52  .26-  .03+    250105 F51  .01-  .04+    250120 691  .00   .01-    
241223 F51  .00   .06-    250105 F51  .05-  .14+    250120 F52  .03+  .19+    
241223 F51  .28+  .01-    250105 F51  .09-  .27+    250120 691  .15+  .35-    
241223 F51  .11+  .13-    250105 F51  .07-  .16-    250120 F52  .13-  .04+    
241230 F51  .17+  .01+    250106 T12  .07+  .04+    

Ephemerides (geocentric):
Date (UTC) HH   RA             Dec           delta  r     elong  mag " sig PA
---- --------  ------------   ------------  ------ ------ -----  --- --------
2025 01 23 00  07 25 24.534   +17 03 33.55  3.3648 4.3285 166.7 21.6 .076  91
2025 01 23 01  07 25 20.916   +17 03 47.71  3.3646 4.3281 166.6 21.6 .076  91
2025 01 23 02  07 25 17.297   +17 04 01.87  3.3643 4.3276 166.6 21.6 .077  91
2025 01 23 03  07 25 13.678   +17 04 16.03  3.3640 4.3272 166.5 21.6 .077  91
2025 01 23 04  07 25 10.059   +17 04 30.18  3.3637 4.3267 166.5 21.6 .078  91
2025 01 23 05  07 25 06.439   +17 04 44.34  3.3634 4.3263 166.4 21.6 .079  91
2025 01 23 06  07 25 02.819   +17 04 58.50  3.3631 4.3258 166.3 21.6 .079  91
2025 01 23 07  07 24 59.199   +17 05 12.65  3.3628 4.3254 166.3 21.6 .080  91
2025 01 23 08  07 24 55.579   +17 05 26.81  3.3625 4.3249 166.2 21.6 .080  91
2025 01 23 09  07 24 51.958   +17 05 40.97  3.3622 4.3245 166.2 21.6 .081  91
2025 01 23 10  07 24 48.337   +17 05 55.13  3.3619 4.3240 166.1 21.6 .082  91
2025 01 23 11  07 24 44.716   +17 06 09.28  3.3616 4.3236 166.1 21.6 .082  91
2025 01 23 12  07 24 41.094   +17 06 23.44  3.3614 4.3231 166.0 21.6 .083  91
2025 01 23 13  07 24 37.473   +17 06 37.60  3.3611 4.3227 166.0 21.6 .083  91
2025 01 23 14  07 24 33.851   +17 06 51.76  3.3608 4.3222 165.9 21.6 .084  91
